AirNav   Phillips 66 Aviation Fuel
 
 1565 users online  

I74 Grimes Field Airport
Urbana, Ohio, USA

GOING TO URBANA?


FAA INFORMATION EFFECTIVE 26 APRIL 2018

Location

FAA Identifier: I74
Lat/Long: 40-07-56.5387N / 083-45-14.6258W
40-07.942312N / 083-45.243763W
40.1323719 / -83.7540627
(estimated)
Elevation: 1067.9 ft. / 325.5 m (surveyed)
Variation: 04W (1985)
From city: 1 mile N of URBANA, OH
Time zone: UTC -4 (UTC -5 during Standard Time)
Zip code: 43078

Airport Operations

Airport use: Open to the public
Activation date: 07/1942
Control tower: no
ARTCC: INDIANAPOLIS CENTER
FSS: DAYTON FLIGHT SERVICE STATION
NOTAMs facility: DAY (NOTAM-D service available)
Attendance: TUE-SAT 0800-1630, ALL SUN-MON UNATNDD
Pattern altitude: 1867.9 ft. MSL
Wind indicator: lighted
Segmented circle: no
Lights: ACTVT MIRL RY 02/20, & REIL RYS 02 & 20 - CTAF.
Beacon: white-green (lighted land airport)
Operates sunset to sunrise.

Airport Communications

CTAF/UNICOM: 122.7
WX AWOS-3: 118.325 (937-484-5863)
COLUMBUS APPROACH: 118.425
COLUMBUS DEPARTURE: 118.425
CLASS C IC: 118.425
WX AWOS-3 at EDJ (15 nm N): 118.075 (937-599-4654)
WX AWOS-3PT at SGH (18 nm S): 134.975
WX AWOS-3PT at UYF (18 nm SE): 120.85 (740-852-2844)
WX AWOS-3 at SCA (19 nm W): 120.425 (937-492-3683)
WX AWOS-3 at MRT (19 nm E): 119.275 (937-644-2967)

Nearby radio navigation aids

VOR radial/distance  VOR name  Freq  Var
RODr130/16.2ROSEWOOD VORTAC117.5005W
SGHr017/18.2SPRINGFIELD VOR/DME113.2004W
DQNr078/30.3DAYTON VOR/DME114.5001W

 
NDB name  Hdg/Dist  Freq  Var  ID
CLARK COUNTY008/15.634104WCCJ -.-. -.-. .---
COURT HOUSE338/36.041406WCSS -.-. ... ...

Airport Services

Fuel available: 100LL JET-A+
Parking: hangars and tiedowns
Airframe service: MINOR
Powerplant service: MINOR

Runway Information

Runway 2/20

Dimensions: 4400 x 100 ft. / 1341 x 30 m
Surface: asphalt, in good condition
Runway edge lights: medium intensity
RUNWAY 2  RUNWAY 20
Latitude: 40-07.609412N40-08.299047N
Longitude: 083-45.357170W083-45.067192W
Elevation: 1057.8 ft.1067.5 ft.
Gradient: 0.2%0.2%
Traffic pattern: leftleft
Runway heading: 022 magnetic, 018 true202 magnetic, 198 true
Markings: nonprecision, in good conditionnonprecision, in good condition
Visual slope indicator: 4-light PAPI on right (3.00 degrees glide path)4-light PAPI on left (3.00 degrees glide path)
Runway end identifier lights: yesyes
Touchdown point: yes, no lightsyes, no lights
Obstructions: 65 ft. tree, 2150 ft. from runway, 50 ft. left of centerline, 30:1 slope to clear72 ft. tree, 2744 ft. from runway, 35:1 slope to clear

Runway 1/19

Dimensions: 3000 x 100 ft. / 914 x 30 m
Surface: turf, in good condition
RUNWAY 1  RUNWAY 19
Latitude: 40-07.680167N40-08.169500N
Longitude: 083-45.334333W083-45.245833W
Elevation: 1060.0 ft.1060.0 ft.
Traffic pattern: leftleft
Runway heading: 012 magnetic, 008 true192 magnetic, 188 true

Airport Ownership and Management from official FAA records

Ownership: Publicly-owned
Owner: CITY OF URBANA
205 S MAIN ST
URBANA, OH 43078
Phone (937) 652-4304
Manager: ELTON CULTICE
1636 N MAIN ST
URBANA, OH 43078
Phone 937-652-4319
AMGR CELL 937-508-5948.

Airport Operational Statistics

Aircraft based on the field: 48
Single engine airplanes: 32
Multi engine airplanes: 11
Helicopters: 1
Ultralights: 4
    
Aircraft operations: avg 64/day *
51% transient general aviation
46% local general aviation
2% military
2% air taxi
* for 12-month period ending 03 September 2016

Additional Remarks

COLUMBUS CD (614) 338-8537.

Instrument Procedures

NOTE: All procedures below are presented as PDF files. If you need a reader for these files, you should download the free Adobe Reader.

NOT FOR NAVIGATION. Please procure official charts for flight.
FAA instrument procedures published for use from 26 April 2018 at 901Z to 24 May 2018 at 0900Z.

 
IAPs - Instrument Approach Procedures
RNAV (GPS) RWY 02   download (220KB)
RNAV (GPS) RWY 20   download (226KB)
VOR-A   download (143KB)
NOTE: Special Alternate Minimums apply   download (21KB)
NOTE: Special Take-Off Minimums/Departure Procedures apply   download (164KB)

Other nearby airports with instrument procedures:

KEDJ - Bellefontaine Regional Airport (15 nm N)
KSGH - Springfield-Beckley Municipal Airport (18 nm S)
KUYF - Madison County Airport (18 nm SE)
KSCA - Sidney Municipal Airport (19 nm W)
KMRT - Union County Airport (19 nm E)
 
Loc | Ops | Rwys | IFR | FBO | Links
Com | Nav | Svcs | Stats | Notes

AirNav Hotels Sweepstakes
 
Area around I74 (Grimes Field Airport)
 
Road maps at: MapQuest Bing Google
 
Aerial photo
WARNING: Photo may not be current or correct
Aerial photo of I74 (Grimes Field Airport)
Photo by Michael Armstrong
Photo taken 11-Oct-2013
looking west.

Do you have a better or more recent aerial photo of Grimes Field Airport that you would like to share? If so, please send us your photo.

 
Sectional chart

 
Airport diagram
CAUTION: Diagram may not be current
Diagram of I74 (Grimes Field Airport)
 
Airport distance calculator
Flying to Grimes Field Airport? Find the distance to fly.

From to I74

Sunrise and sunset
Times for 21-May-2018
 Local
(UTC-4)
 Zulu
(UTC)
Morning civil twilight05:4409:44
Sunrise06:1510:15
Sunset20:4800:48
Evening civil twilight21:1901:19

Current date and time
Zulu (UTC)  21-May-2018 14:44:12
Local (UTC-4)  21-May-2018 10:44:12
 
METAR
KEDJ 
15nm N 
211435Z AUTO 15007KT 10SM CLR 19/14 A3018 RMK AO1
KUYF 
18nm SE 
211435Z AUTO 06006KT 10SM SCT050 BKN060 BKN075 19/17 A3018 RMK AO2 LTG DSNT S
KSGH 
19nm S 
211356Z AUTO 08010KT 10SM SCT055 20/17 A3017 RMK AO2 SLP214 T02000167
KMRT 
19nm E 
211435Z AUTO 08007KT 10SM CLR 20/14 A3018 RMK AO2 T01960142
KFFO 
23nm SW 
211356Z 09007KT 10SM FEW050 20/16 A3016 RMK AO2A SLP212 T02040160
KDAY 
25nm SW 
211356Z 08008KT 10SM SCT120 BKN210 20/17 A3017 RMK AO2 SLP211 T02000167
TAF
KFFO 
23nm SW 
211100Z 2111/2217 07009KT 9999 BKN050 BKN200 QNH3011INS BECMG 2117/2118 10009KT 9000 -SHRA SCT010 BKN025 OVC040 QNH3001INS TEMPO 2120/2124 22015G25KT 6000 -TSRA OVC050CB BECMG 2202/2203 17009KT 6000 -RA BR OVC010 QNH2995INS BECMG 2214/2215 23010G15KT 8000 -RA SCT010 OVC030 QNH2994INS TX27/2120Z TN14/2208Z
KDAY 
25nm SW 
211121Z 2112/2212 05006KT P6SM OVC050 FM211400 10006KT P6SM VCSH SCT040 BKN200 FM211800 11009KT P6SM VCTS BKN040CB TEMPO 2119/2123 4SM -TSRA BR OVC035CB FM220100 18009KT P6SM VCSH BKN040
NOTAMs
Click for the latest NOTAMs
NOTAMs are issued by the DoD/FAA and will open in a separate window not controlled by AirNav.

 

 
 

FBO, Fuel Providers, and Aircraft Ground Support

  
 Business Name 
 
 Contact 
 
 Services / Description 
 
Fuel Prices
 
Comments
  
Grimes Field UNICOM 122.70
937-652-4319
937-508-5948
[web site]
[email]
Airport management, Aviation fuel, Aircraft parking (ramp or tiedown), Catering, Rental cars, Courtesy transportation, Pilots lounge / snooze room, Public telephone, ...
More info and photos of Grimes Field
Phillips 66
100LL Jet A
SS $4.50 $3.75 
 Updated 11-May-2018
 
   3 read write
SS=Self service
Update Fuel Prices
 

Where to Eat: Catering, Restaurants, Food shops

  
 Business Name 
 
 Contact 
 
 Services / Description 
 
Distance
 
Comments
  
The Airport Cafe 937-652-2010
no information available

If you are affiliated with The Airport Cafe and would like to show here your services, contact info, web link, logo, and more, click here
on airport  
   2 read write
 

Would you like to see your business listed on this page?

 If your business provides an interesting product or service to pilots, flight crews, aircraft, or users of the Grimes Field Airport, you should consider listing it here.  To start the listing process, click on the button below
 
Add a business
 

Other Pages about Grimes Field Airport

www.grimesfield.com
 
Update a link
 
Copyright © AirNav, LLC. All rights reserved. Privacy Policy  Contact